TIROS 2 DEB *, 5922

Orbit data source: Space-Track

TIROS 2 DEB *, 5922 is space debris in LEO originally from a launch on Wed, 23 Nov 1960 UTC launched from the Air Force Eastern Test Range (AFETR). Debris objects in space refer to the collection of defunct objects orbiting the Earth. Examples of debris include non-operational satellites, rocket bodies, and fragments generated from explosions, collisions, or faulty payload assembly.

Loading next visibility...
Identifier
5922, 1960-016E
Orbit
LEO
Country
Flag of USUS
Related business
Manufacturer
Unknown
Mission
Spacecraft
Bus & Motor
Unknown
Mass
Unknown
Launch date (UTC)
1960-11-23 (65 years ago)
Launch vehicle
Unknown
Launch site
Air Force Eastern Test Range (AFETR)
Object type
Payload
Rocket body
Debris
Shape & HBR
Unknown
Radar Cross Section
Small (<0.1 m²)

Expand to show TLE details & history
Last TLE update: 1 day ago

TLE from 1 day ago
0 TIROS 2 DEB *
1 05922U 60016E   25257.21062867 -.00000054  00000-0  85402-4 0  9997
2 05922  47.0305 199.9930 0040945 347.9588 148.1934 13.70025009713609
Epoch: 2025-09-14T05:03Z
TLE epoch observation values (Epoch: 2025-09-14T05:03:18.317Z)
Latitude
30.40533°
Longitude
-82.20984°
Altitude
1,026.317 km
Speed
7.33 km/s
True Right ascension
23h 08m 11s
True Declination
30° 15' 39"
Sunlit
Object was in full shadow at epoch
Visualization orbit readout
Latitude
Unknown
Longitude
Unknown
Altitude
Unknown
Speed
Unknown
Apparent Right ascension
Unknown
Apparent Declination
Unknown
Sunlit
N/A
Visualization observer readout
Local Sidereal Time
21:36:20
Azimuth
Unknown
Elevation
Unknown
Doppler factor
Unknown
Orbital elements
Apogee altitude
1,030.874 km
Perigee altitude
970.449 km
Semi-major axis
7,378.798 km
Eccentricity
0.00409
Inclination
47.0305°
RAAN
199.993°
Arg. of periapsis
347.9588°
True anomaly
148.43962°
Mean anomaly
148.1934°
Eccentric anomaly
148.31662°
Mean motion
3.42424 °/min
Orbital period
105.13 mins
BSTAR
0.000085402
Loading maneuver chart data...
Computing Atmospheric mass density...
Loading historical data...
Loading historical data...
Loading historical data...
Loading historical data...
Loading historical data...
Loading historical data...
Loading historical data...
Other satellites on launch #16 in the year 1960 (1960-11-23 UTC)

Documentation

Showing up to 5 results
|